AirNav   Air Wisconsin pilot careers
 
 279 users online  

O37 Haigh Field Airport
Orland, California, USA

GOING TO ORLAND?


FAA INFORMATION EFFECTIVE 08 NOVEMBER 2018

Location

FAA Identifier: O37
Lat/Long: 39-43-13.4000N / 122-08-46.9000W
39-43.223333N / 122-08.781667W
39.7203889 / -122.1463611
(estimated)
Elevation: 217.7 ft. / 66.4 m (surveyed)
Variation: 18E (1975)
From city: 3 miles SE of ORLAND, CA
Time zone: UTC -8 (UTC -7 during Daylight Saving Time)
Zip code: 95963

Airport Operations

Airport use: Open to the public
Activation date: 09/1947
Control tower: no
ARTCC: OAKLAND CENTER
FSS: RANCHO MURIETA FLIGHT SERVICE STATION
NOTAMs facility: RIU (NOTAM-D service available)
Attendance: MON-FRI 0700-1530
Wind indicator: lighted
Segmented circle: yes
Lights: ACTVT PAPI RWY 15 & 33; MIRL RWY 15/33 - CTAF.
Beacon: white-green (lighted land airport)
Operates sunset to sunrise.

Airport Communications

CTAF/UNICOM: 122.7
WX AWOS-3 at CIC (14 nm E): 119.675 (530-879-3850)
  • APCH/DEP SVC PRVDD BY OAKLAND ARTCC ON FREQS 132.2/350.3 (RED BLUFF RCAG).
  • CHICO RCO 109.8T 122.1R (RANCHO MURIETA RADIO)

Nearby radio navigation aids

VOR radial/distance  VOR name  Freq  Var
CICr237/14.4CHICO VOR/DME109.8016E
RBLr152/23.1RED BLUFF VORTAC115.7018E
ILAr334/39.3WILLIAMS VORTAC114.4018E

Airport Services

Fuel available: 100LL
Parking: tiedowns
Airframe service: MAJOR
Powerplant service: MAJOR
Bottled oxygen: NONE
Bulk oxygen: NONE

Runway Information

Runway 15/33

Dimensions: 4500 x 60 ft. / 1372 x 18 m
Surface: asphalt, in good condition
Weight bearing capacity: 
Single wheel: 30.0
Runway edge lights: medium intensity
RUNWAY 15  RUNWAY 33
Latitude: 39-43.582383N39-42.864410N
Longitude: 122-08.901452W122-08.663015W
Elevation: 217.7 ft.209.7 ft.
Gradient: 0.2%0.2%
Traffic pattern: leftleft
Runway heading: 148 magnetic, 166 true328 magnetic, 346 true
Markings: basic, in fair conditionbasic, in fair condition
Visual slope indicator: 2-light PAPI on left (3.50 degrees glide path)2-light PAPI on left (3.50 degrees glide path)
Runway end identifier lights: nono
Touchdown point: yes, no lightsyes, no lights
Obstructions: 15 ft. road, 700 ft. from runway, 125 ft. left of centerline, 33:1 slope to clear30 ft. pole, 1200 ft. from runway, 125 ft. left of centerline, 33:1 slope to clear

Airport Ownership and Management from official FAA records

Ownership: Publicly-owned
Owner: GLENN COUNTY
525 SYCAMORE ST., STE B1
WILLOWS, CA 95988
Phone 530-934-6400
Manager: MOHAMMAD QURESHI
PO BOX 1070
WILLOWS, CA 95988
Phone 530-934-6530
OFFICE AT ORLAND ARPT PHONE 530-865-1173.

Airport Operational Statistics

Aircraft based on the field: 48
Single engine airplanes: 39
Multi engine airplanes: 3
Helicopters: 2
Gliders airplanes: 3
Ultralights: 1
  • ULTRALIGHT ACTIVITY ON & INVOF ARPT.
    
Aircraft operations: avg 55/day *
60% transient general aviation
40% local general aviation
* for 12-month period ending 31 December 2016

Instrument Procedures

NOTE: All procedures below are presented as PDF files. If you need a reader for these files, you should download the free Adobe Reader.

NOT FOR NAVIGATION. Please procure official charts for flight.
FAA instrument procedures published for use from 8 November 2018 at 0901Z to 6 December 2018 at 0900Z.

 
IAPs - Instrument Approach Procedures
VOR OR GPS-A   download (160KB)
NOTE: Special Take-Off Minimums/Departure Procedures apply   download (128KB)

Other nearby airports with instrument procedures:

KWLW - Willows-Glenn County Airport (13 nm S)
KCIC - Chico Municipal Airport (14 nm E)
KRBL - Red Bluff Municipal Airport (26 nm N)
KOVE - Oroville Municipal Airport (28 nm SE)
O08 - Colusa County Airport (33 nm S)
 
Loc | Ops | Rwys | IFR | FBO | Links
Com | Nav | Svcs | Stats | Notes


 
Area around O37 (Haigh Field Airport)
 
Road maps at: MapQuest Bing Google
 
Aerial photo
WARNING: Photo may not be current or correct
Aerial photo of O37 (Haigh Field Airport)
Do you have a better or more recent aerial photo of Haigh Field Airport that you would like to share? If so, please send us your photo.

 
Sectional chart

 
Airport distance calculator
Flying to Haigh Field Airport? Find the distance to fly.

From to O37

Sunrise and sunset
Times for 17-Nov-2018
 Local
(UTC-8)
 Zulu
(UTC)
Morning civil twilight06:2814:28
Sunrise06:5714:57
Sunset16:5100:51
Evening civil twilight17:2001:20

Current date and time
Zulu (UTC)  17-Nov-2018 09:16:32
Local (UTC-8)  17-Nov-2018 01:16:32
 
METAR
KCIC 
15nm E 
170855Z AUTO 00000KT 3SM FEW013 BKN021 OVC055 05/M07 A3002 RMK AO1
KO54 
23nm N 
170855Z AUTO 00000KT 10SM CLR 00/M06 A3005 RMK AO1
KRBL 
26nm N 
170854Z AUTO 30007KT 3SM HZ OVC021 04/M04 A3002 RMK AO2 SLP165 T00391039 51005
KOVE 
28nm SE 
170853Z AUTO 00000KT 1 3/4SM HZ CLR 05/00 A3002 RMK AO2 SLP168 T00500000 53006 TSNO
TAF
KRBL 
26nm N 
170530Z 1706/1806 VRB05KT 3SM FU HZ OVC015 FM180000 VRB03KT 5SM FU HZ SCT015
NOTAMs
Click for the latest NOTAMs
NOTAMs are issued by the DoD/FAA and will open in a separate window not controlled by AirNav.

 

 
 

FBO, Fuel Providers, and Aircraft Ground Support

  
 Business Name 
 
 Contact 
 
 Services / Description 
 
Fuel Prices
 
Comments
  
Haigh Field Airport 530-865-1173
no information available

If you are affiliated with Haigh Field Airport and would like to show here your services, contact info, web link, logo, and more, click here
100LL
SS $4.66 
 Updated 07-Nov-2018
 
   1 read write
SS=Self service
Update Fuel Prices
 

Would you like to see your business listed on this page?

 If your business provides an interesting product or service to pilots, flight crews, aircraft, or users of the Haigh Field Airport, you should consider listing it here.  To start the listing process, click on the button below
 
Add a business
 

Other Pages about Haigh Field Airport

www.countyofglenn.net/...
 
Update a link
 
Copyright © AirNav, LLC. All rights reserved. Privacy Policy  Contact